Stations météo

réclame
Mon MeteoGroup
Kleine Brogel, Belgique (6479): Température de l'air & dewpoint: 22.09.2020 16:00:00 - 28.09.2020 16:00:00 (CEST)Kleine Brogel, Belgique (6479): Vitesse du vent & gusts: 22.09.2020 16:00:00 - 28.09.2020 16:00:00 (CEST)Kleine Brogel, Belgique (6479): Direction du vent: 22.09.2020 16:00:00 - 28.09.2020 16:00:00 (CEST)Kleine Brogel, Belgique (6479): reduced air pressure: 22.09.2020 16:00:00 - 28.09.2020 16:00:00 (CEST)Kleine Brogel, Belgique (6479): visibility: 22.09.2020 16:00:00 - 28.09.2020 16:00:00 (CEST)
Date & Time tt [°C] td [°C] ff [km/h] ff [knt] fx [km/h] fx [knt] dd ppp [hPa] vv [km]
28.09.2020 16:00:00 10,8 10,1 11 6 18 10 S 1009,5 3,0
28.09.2020 15:00:00 11,0 10,5 11 6 18 10 S 1009,3 3,0
28.09.2020 14:00:00 11,5 11,0 11 6 - - S 1009,2 3,0
28.09.2020 13:00:00 11,4 10,7 7 4 18 10 S 1009,3 8
28.09.2020 12:00:00 11,2 10,6 7 4 18 10 SSW 1009,0 3,5
28.09.2020 11:00:00 11,4 10,9 11 6 - - SSW 1008,8 3,0
28.09.2020 10:00:00 11,3 10,9 11 6 18 10 SSW 1008,7 3,0
28.09.2020 09:00:00 11,1 10,4 7 4 14 8 S 1008,8 3,5
28.09.2020 08:00:00 11,1 10,2 7 4 - - SSW 1008,2 4,0
28.09.2020 07:00:00 11,1 9,9 7 4 14 8 SSW 1008,0 10
28.09.2020 06:00:00 11,3 9,8 4 2 7 4 N 1008,2 11
28.09.2020 05:00:00 11,1 9,8 4 2 - - N 1008,0 12
28.09.2020 04:00:00 10,9 10,2 4 2 4 2 N 1008,2 8
28.09.2020 03:00:00 11,0 10,5 4 2 4 2 N 1008,3 5
28.09.2020 02:00:00 10,8 10,3 4 2 - - N 1008,2 5
28.09.2020 01:00:00 10,6 10,3 4 2 4 2 N 1008,3 7
28.09.2020 00:00:00 10,3 9,9 2 1 0 0 - 1008,2 4,7
27.09.2020 23:00:00 10,5 10,0 4 2 - - N 1008,1 9
27.09.2020 22:00:00 11,1 10,0 4 2 0 0 N 1007,3 10
27.09.2020 21:00:00 11,5 10,0 4 2 4 2 N 1007,2 20
27.09.2020 20:00:00 11,8 9,7 4 2 - - N 1006,8 20
27.09.2020 19:00:00 12,5 9,5 4 2 11 6 N 1006,3 20
27.09.2020 18:00:00 13,1 9,0 7 4 14 8 N 1005,8 20
27.09.2020 17:00:00 13,5 8,5 7 4 - - NNE 1005,2 20
27.09.2020 16:00:00 13,2 8,5 11 6 22 12 ENE 1004,6 19
27.09.2020 15:00:00 12,8 9,0 14 8 22 12 ENE 1004,2 3,3
27.09.2020 14:00:00 12,6 9,5 14 8 - - NE 1003,7 20
27.09.2020 13:00:00 11,8 9,9 14 8 22 12 NNE 1002,7 12
27.09.2020 12:00:00 11,9 9,9 18 10 25 14 ENE 1002,1 20
27.09.2020 11:00:00 11,6 10,0 14 8 - - NE 1000,7 20
27.09.2020 10:00:00 11,6 10,3 18 10 29 16 ENE 999,6 20
27.09.2020 09:00:00 12,5 12,0 18 10 29 16 NE 997,6 19
27.09.2020 08:00:00 13,3 12,8 14 8 - - ENE 996,0 14
27.09.2020 07:00:00 14,3 13,8 18 10 32 18 N 994,5 3,2
27.09.2020 06:00:00 14,0 13,7 18 10 32 18 N 993,9 20
27.09.2020 05:00:00 13,0 12,7 14 8 - - NNW 993,6 5
27.09.2020 04:00:00 12,3 12,0 14 8 36 19 NW 994,0 3,0
27.09.2020 03:00:00 11,6 11,1 18 10 36 19 WNW 995,0 10
27.09.2020 02:00:00 11,3 10,7 14 8 - - W 997,3 15
27.09.2020 01:00:00 11,3 10,9 14 8 32 18 NW 999,0 10
27.09.2020 00:00:00 11,8 11,4 13 7 25 14 NW 999,4 10
26.09.2020 23:00:00 11,3 11,1 14 8 - - WSW 999,9 3,4
26.09.2020 22:00:00 11,3 10,7 4 2 11 6 N 1000,7 4,1
26.09.2020 21:00:00 12,5 9,4 4 2 11 6 N 1000,8 9
26.09.2020 20:00:00 13,0 8,1 4 2 - - N 1000,7 20
26.09.2020 19:00:00 14,0 6,9 7 4 22 12 NNW 1000,6 20
26.09.2020 18:00:00 15,1 6,9 11 6 25 14 N 1000,3 20
26.09.2020 17:00:00 15,0 7,9 14 8 - - NW 1000,2 20
26.09.2020 16:00:00 15,4 8,0 11 6 22 12 NNW 999,9 20
26.09.2020 15:00:00 14,9 8,1 11 6 22 12 NW 1000,2 20
26.09.2020 14:00:00 13,6 7,3 11 6 - - NW 999,9 20
26.09.2020 13:00:00 13,4 7,3 11 6 22 12 NW 999,5 20
26.09.2020 12:00:00 12,4 7,7 7 4 22 12 NW 999,2 20
26.09.2020 11:00:00 11,9 8,6 9 5 - - NW 998,9 10
26.09.2020 10:00:00 10,5 8,9 14 8 25 14 WNW 998,5 19
26.09.2020 09:00:00 10,3 8,7 11 6 22 12 WNW 997,7 20
26.09.2020 08:00:00 10,1 8,8 11 6 - - NW 997,1 20
26.09.2020 07:00:00 10,2 9,1 7 4 25 14 WNW 996,3 7
26.09.2020 06:00:00 10,3 9,2 11 6 25 14 W 995,4 11
26.09.2020 05:00:00 10,1 8,8 14 8 - - WNW 994,8 17
26.09.2020 04:00:00 10,4 9,3 14 8 32 18 WNW 994,0 18
26.09.2020 03:00:00 10,3 9,7 24 13 47 25 WSW 993,0 10
26.09.2020 02:00:00 9,8 9,2 32 18 - - SW 992,9 20
26.09.2020 01:00:00 9,8 9,2 36 19 54 29 WSW 993,8 11
26.09.2020 00:00:00 9,8 9,3 34 18 50 27 WSW 994,3 3,4
25.09.2020 23:00:00 9,8 9,3 29 16 - - SW 994,8 8
25.09.2020 22:00:00 9,5 8,9 29 16 47 25 SW 995,0 20
25.09.2020 21:00:00 9,6 8,3 29 16 43 23 SW 995,4 20
25.09.2020 20:00:00 9,8 8,4 26 14 - - SW 996,2 10
25.09.2020 19:00:00 10,0 8,9 22 12 40 21 SW 996,5 20
25.09.2020 18:00:00 10,7 8,3 25 14 40 21 SW 996,7 20
25.09.2020 17:00:00 10,8 9,2 25 14 - - WSW 996,7 20
25.09.2020 16:00:00 11,6 10,0 11 6 25 14 SSW 996,7 20
25.09.2020 15:00:00 13,4 8,1 14 8 29 16 SSW 995,9 20
25.09.2020 14:00:00 13,0 8,6 18 10 - - SSW 995,8 20
25.09.2020 13:00:00 12,2 9,5 18 10 32 18 SSW 996,3 20
25.09.2020 12:00:00 9,9 8,7 11 6 29 16 SSW 996,9 10
25.09.2020 11:00:00 11,0 7,0 11 6 - - S 996,5 20
25.09.2020 10:00:00 10,1 6,8 11 6 22 12 S 996,2 20
25.09.2020 09:00:00 9,6 6,4 11 6 25 14 S 996,1 20
25.09.2020 08:00:00 8,5 6,2 11 6 - - SSW 996,2 20
25.09.2020 07:00:00 8,1 6,1 11 6 18 10 S 996,3 20
25.09.2020 06:00:00 8,4 6,6 11 6 18 10 SSW 996,5 20
25.09.2020 05:00:00 8,5 7,1 11 6 - - SSW 996,2 20
25.09.2020 04:00:00 9,2 7,8 14 8 54 29 SSW 996,6 20
25.09.2020 03:00:00 11,6 9,0 14 8 29 16 SW 996,0 20
25.09.2020 02:00:00 12,1 10,4 18 10 - - SSW 996,5 20
25.09.2020 01:00:00 12,6 11,1 11 6 32 18 S 996,2 12
25.09.2020 00:00:00 13,6 11,2 14 8 32 18 S 996,5 20
24.09.2020 23:00:00 13,3 11,4 7 4 - - SSE 996,6 20
24.09.2020 22:00:00 13,8 11,2 7 4 14 8 SSE 997,5 20
24.09.2020 21:00:00 14,6 10,0 4 2 22 12 N 998,2 17
24.09.2020 20:00:00 15,9 8,0 4 2 - - - 998,7 3,2
24.09.2020 19:00:00 16,6 7,7 4 2 25 14 N 999,1 20
24.09.2020 18:00:00 17,7 6,2 14 8 29 16 S 1000,2 20
24.09.2020 17:00:00 18,3 6,3 14 8 - - SSW 1000,8 20
24.09.2020 16:00:00 18,6 7,3 18 10 40 21 SSW 1001,6 20
24.09.2020 15:00:00 18,5 7,6 22 12 47 25 SSW 1002,2 20
24.09.2020 14:00:00 17,1 7,3 18 10 - - SSW 1002,7 20
24.09.2020 13:00:00 16,6 7,4 25 14 47 25 SSW 1003,2 20
24.09.2020 12:00:00 15,7 7,8 25 14 43 23 SSW 1003,8 20
24.09.2020 11:00:00 14,2 9,2 18 10 - - SSW 1004,2 20
24.09.2020 10:00:00 13,1 9,5 18 10 40 21 SSW 1004,3 20
24.09.2020 09:00:00 11,9 9,8 14 8 29 16 SSW 1004,2 20
24.09.2020 08:00:00 11,0 9,5 14 8 - - SSW 1003,7 20
24.09.2020 07:00:00 11,1 9,8 14 8 25 14 SSW 1003,3 20
24.09.2020 06:00:00 11,6 10,2 18 10 29 16 SSW 1002,8 20
24.09.2020 05:00:00 11,8 10,6 14 8 - - SW 1002,3 20
24.09.2020 04:00:00 12,6 10,9 18 10 32 18 SW 1001,6 20
24.09.2020 03:00:00 13,3 12,0 22 12 54 29 WSW 1000,7 20
24.09.2020 02:00:00 15,6 14,6 11 6 - - S 999,3 20
24.09.2020 01:00:00 15,6 14,6 11 6 32 18 S 999,7 17
24.09.2020 00:00:00 16,0 14,5 18 10 50 27 SSW 1000,2 20
23.09.2020 23:00:00 19,0 12,4 7 4 - - SSE 999,8 20
23.09.2020 22:00:00 19,1 11,6 7 4 18 10 S 1000,7 20
23.09.2020 21:00:00 19,5 11,6 7 4 14 8 S 1001,2 20
23.09.2020 20:00:00 19,7 11,3 7 4 - - S 1001,7 20
23.09.2020 19:00:00 20,7 11,0 14 8 32 18 SSW 1002,0 20
23.09.2020 18:00:00 21,6 11,3 22 12 43 23 SW 1002,7 20
23.09.2020 17:00:00 22,2 10,9 29 16 - - SW 1003,0 20
23.09.2020 16:00:00 - - - - - - - - -
23.09.2020 15:00:00 - - - - - - - - -
23.09.2020 14:00:00 - - - - - - - - -
23.09.2020 13:00:00 - - - - - - - - -
23.09.2020 12:00:00 - - - - - - - - -
23.09.2020 11:00:00 - - - - - - - - -
23.09.2020 10:00:00 16,5 11,1 7 4 14 8 S 1006,0 18
23.09.2020 09:00:00 14,0 9,2 4 2 11 6 N 1006,0 11
23.09.2020 08:00:00 10,5 8,1 4 2 - - N 1006,2 9
23.09.2020 07:00:00 10,5 8,4 4 2 7 4 N 1006,0 8
23.09.2020 06:00:00 10,9 9,0 4 2 11 6 N 1006,2 7
23.09.2020 05:00:00 11,2 9,0 7 4 - - SSW 1006,3 8
23.09.2020 04:00:00 12,5 9,1 4 2 11 6 N 1006,5 7
23.09.2020 03:00:00 12,6 9,5 4 2 11 6 N 1006,7 9
23.09.2020 02:00:00 10,3 8,3 4 2 - - - 1006,8 8
23.09.2020 01:00:00 11,3 9,1 7 4 7 4 N 1007,1 9
23.09.2020 00:00:00 11,6 8,8 4 2 4 2 N 1007,2 20
22.09.2020 23:00:00 13,1 9,6 4 2 - - N 1007,6 20
22.09.2020 22:00:00 13,3 9,6 4 2 7 4 N 1007,7 20
22.09.2020 21:00:00 15,6 9,8 4 2 4 2 N 1007,3 20
22.09.2020 20:00:00 18,2 9,3 4 2 - - N 1007,2 18
22.09.2020 19:00:00 21,7 8,8 4 2 11 6 N 1007,3 18
22.09.2020 18:00:00 24,0 8,5 7 4 14 8 WSW 1007,7 18
22.09.2020 17:00:00 25,0 8,6 7 4 - - SW 1008,2 18
22.09.2020 16:00:00 24,8 8,2 7 4 18 10 N 1009,0 18

tt = Température de l'air
td = dewpoint
ff = Vitesse du vent
fx = gusts
dd = Direction du vent
ppp = reduced air pressure
vv = visibility

stations d'obs. à proximité